Wetterdaten: Donnerstag, 27.08.2015
Datum Zeit Auen-Temp. Temp gefhlt Luftfeuchte Luftdruck Regen Wind Richtung Richtung Taupunkt Windben
27.08.2015 00:00 12,7 C 12,6 C 86 % 1011,4 hPa 0,0 mm 0,0 km/h (0 Bft) S-SO 157 10,4 C 0,0 km/h (0 Bft)
27.08.2015 00:05 12,7 C 12,6 C 86 % 1011,4 hPa 0,0 mm 0,0 km/h (0 Bft) S-SO 157 10,4 C 0,0 km/h (0 Bft)
27.08.2015 00:10 12,6 C 12,4 C 86 % 1011,4 hPa 0,0 mm 0,0 km/h (0 Bft) W 270 10,3 C 3,9 km/h (1 Bft)
27.08.2015 00:11 12,9 C 12,7 C 86 % 1011,4 hPa 0,0 mm 1,0 km/h (0 Bft) W-SW 247 10,6 C 4,1 km/h (1 Bft)
27.08.2015 00:16 12,8 C 12,6 C 86 % 1011,4 hPa 0,0 mm 1,3 km/h (1 Bft) S-SW 202 10,5 C 3,6 km/h (1 Bft)
27.08.2015 00:20 12,8 C 12,6 C 86 % 1011,4 hPa 0,0 mm 1,3 km/h (1 Bft) S-SW 202 10,5 C 6,0 km/h (2 Bft)
27.08.2015 00:25 12,9 C 12,7 C 87 % 1011,4 hPa 0,0 mm 0,8 km/h (0 Bft) S 180 10,8 C 3,9 km/h (1 Bft)
27.08.2015 00:30 13,2 C 13,0 C 86 % 1011,4 hPa 0,0 mm 1,6 km/h (1 Bft) S-SO 157 10,9 C 8,3 km/h (2 Bft)
27.08.2015 00:35 13,5 C 13,2 C 87 % 1011,4 hPa 0,0 mm 1,3 km/h (1 Bft) S 180 11,4 C 0,0 km/h (0 Bft)
27.08.2015 00:40 13,6 C 13,3 C 87 % 1011,4 hPa 0,0 mm 2,6 km/h (1 Bft) S-SO 157 11,5 C 12,4 km/h (3 Bft)
27.08.2015 00:45 13,5 C 13,3 C 87 % 1011,4 hPa 0,0 mm 3,6 km/h (1 Bft) S 180 11,4 C 3,4 km/h (1 Bft)
27.08.2015 00:50 13,1 C 12,9 C 86 % 1011,4 hPa 0,0 mm 2,1 km/h (1 Bft) W-SW 247 10,8 C 0,0 km/h (0 Bft)
27.08.2015 00:55 13,1 C 12,9 C 86 % 1011,4 hPa 0,0 mm 1,6 km/h (1 Bft) SO 135 10,8 C 0,0 km/h (0 Bft)
27.08.2015 01:00 13,4 C 13,1 C 86 % 1011,4 hPa 0,0 mm 2,3 km/h (1 Bft) S 180 11,1 C 8,3 km/h (2 Bft)
27.08.2015 01:05 13,3 C 13,1 C 86 % 1011,4 hPa 0,0 mm 3,1 km/h (1 Bft) SO 135 11,0 C 0,0 km/h (0 Bft)
27.08.2015 01:10 12,9 C 12,7 C 86 % 1011,4 hPa 0,0 mm 1,8 km/h (1 Bft) SO 135 10,6 C 0,0 km/h (0 Bft)
27.08.2015 01:15 12,6 C 12,5 C 86 % 1011,4 hPa 0,0 mm 0,0 km/h (0 Bft) SO 135 10,3 C 0,0 km/h (0 Bft)
27.08.2015 01:20 12,5 C 12,3 C 86 % 1011,4 hPa 0,0 mm 0,0 km/h (0 Bft) S-SO 157 10,2 C 0,0 km/h (0 Bft)
27.08.2015 01:25 12,3 C 12,1 C 86 % 1011,4 hPa 0,0 mm 0,0 km/h (0 Bft) NW 315 10,0 C 0,0 km/h (0 Bft)
27.08.2015 01:30 12,4 C 12,2 C 86 % 1011,4 hPa 0,0 mm 0,3 km/h (0 Bft) S 180 10,1 C 0,0 km/h (0 Bft)
27.08.2015 01:35 12,7 C 12,4 C 87 % 1011,5 hPa 0,0 mm 0,3 km/h (0 Bft) S 180 10,6 C 0,0 km/h (0 Bft)
27.08.2015 01:40 13,0 C 12,7 C 86 % 1011,5 hPa 0,0 mm 0,5 km/h (0 Bft) SW 225 10,7 C 0,0 km/h (0 Bft)
27.08.2015 01:45 12,9 C 12,7 C 87 % 1011,5 hPa 0,0 mm 0,8 km/h (0 Bft) W 270 10,8 C 0,0 km/h (0 Bft)
27.08.2015 01:50 12,6 C 12,4 C 86 % 1011,5 hPa 0,0 mm 0,0 km/h (0 Bft) SW 225 10,3 C 0,0 km/h (0 Bft)
27.08.2015 01:55 12,4 C 12,2 C 86 % 1011,3 hPa 0,0 mm 0,0 km/h (0 Bft) W 270 10,1 C 0,0 km/h (0 Bft)
27.08.2015 02:00 12,3 C 12,1 C 86 % 1011,3 hPa 0,0 mm 0,0 km/h (0 Bft) W 270 10,0 C 0,0 km/h (0 Bft)
27.08.2015 02:05 12,2 C 12,0 C 86 % 1011,3 hPa 0,0 mm 0,0 km/h (0 Bft) W 270 9,9 C 0,0 km/h (0 Bft)
27.08.2015 02:10 12,2 C 12,0 C 86 % 1011,3 hPa 0,0 mm 0,0 km/h (0 Bft) W 270 9,9 C 0,0 km/h (0 Bft)
27.08.2015 02:15 12,2 C 12,0 C 86 % 1011,5 hPa 0,0 mm 0,8 km/h (0 Bft) S 180 9,9 C 3,4 km/h (1 Bft)
27.08.2015 02:20 12,1 C 11,9 C 86 % 1011,5 hPa 0,0 mm 0,8 km/h (0 Bft) SO 135 9,8 C 0,0 km/h (0 Bft)
27.08.2015 02:25 12,0 C 11,9 C 86 % 1011,5 hPa 0,0 mm 0,3 km/h (0 Bft) SO 135 9,7 C 0,0 km/h (0 Bft)
27.08.2015 02:30 11,8 C 11,7 C 87 % 1011,5 hPa 0,0 mm 0,0 km/h (0 Bft) W-SW 247 9,7 C 0,0 km/h (0 Bft)
27.08.2015 02:35 11,8 C 11,7 C 87 % 1011,5 hPa 0,0 mm 0,0 km/h (0 Bft) SW 225 9,7 C 0,0 km/h (0 Bft)
27.08.2015 02:40 11,8 C 11,7 C 87 % 1011,5 hPa 0,0 mm 0,0 km/h (0 Bft) O-NO 67 9,7 C 0,0 km/h (0 Bft)
27.08.2015 02:45 11,8 C 11,7 C 87 % 1011,5 hPa 0,0 mm 0,0 km/h (0 Bft) SO 135 9,7 C 0,0 km/h (0 Bft)
27.08.2015 02:50 11,7 C 11,5 C 87 % 1011,5 hPa 0,0 mm 0,0 km/h (0 Bft) O-NO 67 9,6 C 0,0 km/h (0 Bft)
27.08.2015 02:55 11,8 C 11,6 C 87 % 1011,4 hPa 0,0 mm 0,0 km/h (0 Bft) O-NO 67 9,7 C 0,0 km/h (0 Bft)
27.08.2015 03:00 11,7 C 11,5 C 87 % 1011,4 hPa 0,0 mm 0,0 km/h (0 Bft) O-SO 112 9,6 C 0,0 km/h (0 Bft)
27.08.2015 03:05 11,6 C 11,4 C 87 % 1011,4 hPa 0,0 mm 0,0 km/h (0 Bft) O-NO 67 9,5 C 0,0 km/h (0 Bft)
27.08.2015 03:10 11,4 C 11,3 C 87 % 1011,4 hPa 0,0 mm 0,0 km/h (0 Bft) N-NO 22 9,3 C 0,0 km/h (0 Bft)
27.08.2015 03:15 11,7 C 11,5 C 88 % 1011,3 hPa 0,0 mm 0,0 km/h (0 Bft) N-NO 22 9,8 C 0,0 km/h (0 Bft)
27.08.2015 03:20 11,4 C 11,3 C 87 % 1011,3 hPa 0,0 mm 0,0 km/h (0 Bft) NW 315 9,3 C 0,0 km/h (0 Bft)
27.08.2015 03:25 11,4 C 11,3 C 88 % 1011,3 hPa 0,0 mm 0,0 km/h (0 Bft) NW 315 9,5 C 0,0 km/h (0 Bft)
27.08.2015 03:30 11,6 C 11,4 C 88 % 1011,3 hPa 0,0 mm 0,0 km/h (0 Bft) NO 45 9,7 C 0,0 km/h (0 Bft)
27.08.2015 03:35 11,5 C 11,4 C 88 % 1011,3 hPa 0,0 mm 0,0 km/h (0 Bft) N-NW 337 9,6 C 0,0 km/h (0 Bft)
27.08.2015 03:40 11,6 C 11,4 C 88 % 1011,3 hPa 0,0 mm 0,0 km/h (0 Bft) O-NO 67 9,7 C 0,0 km/h (0 Bft)
27.08.2015 03:45 11,5 C 11,4 C 88 % 1011,3 hPa 0,0 mm 0,0 km/h (0 Bft) O-NO 67 9,6 C 0,0 km/h (0 Bft)
27.08.2015 03:50 11,6 C 11,5 C 88 % 1011,3 hPa 0,0 mm 0,0 km/h (0 Bft) O-NO 67 9,7 C 0,0 km/h (0 Bft)
27.08.2015 03:55 11,5 C 11,4 C 88 % 1011,4 hPa 0,0 mm 0,0 km/h (0 Bft) N-NW 337 9,6 C 0,0 km/h (0 Bft)
27.08.2015 04:00 11,5 C 11,3 C 88 % 1011,4 hPa 0,0 mm 0,0 km/h (0 Bft) N-NO 22 9,6 C 0,0 km/h (0 Bft)
27.08.2015 04:05 11,5 C 11,3 C 88 % 1011,4 hPa 0,0 mm 0,0 km/h (0 Bft) N-NO 22 9,6 C 0,0 km/h (0 Bft)
27.08.2015 04:10 11,5 C 11,3 C 88 % 1011,4 hPa 0,0 mm 0,0 km/h (0 Bft) N-NO 22 9,6 C 0,0 km/h (0 Bft)
27.08.2015 04:15 11,4 C 11,3 C 88 % 1011,4 hPa 0,0 mm 0,0 km/h (0 Bft) N-NW 337 9,5 C 0,0 km/h (0 Bft)
27.08.2015 04:20 11,4 C 11,3 C 88 % 1011,4 hPa 0,0 mm 0,0 km/h (0 Bft) W 270 9,5 C 0,0 km/h (0 Bft)
27.08.2015 04:25 11,3 C 11,2 C 88 % 1011,4 hPa 0,0 mm 0,0 km/h (0 Bft) NW 315 9,4 C 0,0 km/h (0 Bft)
27.08.2015 04:30 11,3 C 11,2 C 88 % 1011,4 hPa 0,0 mm 0,0 km/h (0 Bft) W 270 9,4 C 0,0 km/h (0 Bft)
27.08.2015 04:35 11,3 C 11,2 C 88 % 1011,1 hPa 0,0 mm 0,0 km/h (0 Bft) W-SW 247 9,4 C 0,0 km/h (0 Bft)
27.08.2015 04:40 11,4 C 11,2 C 88 % 1011,1 hPa 0,0 mm 0,0 km/h (0 Bft) W 270 9,5 C 0,0 km/h (0 Bft)
27.08.2015 04:45 11,3 C 11,1 C 88 % 1011,1 hPa 0,0 mm 0,0 km/h (0 Bft) NW 315 9,4 C 0,0 km/h (0 Bft)
27.08.2015 04:50 11,3 C 11,1 C 88 % 1011,1 hPa 0,0 mm 0,0 km/h (0 Bft) NW 315 9,4 C 0,0 km/h (0 Bft)
27.08.2015 04:55 11,2 C 11,1 C 88 % 1011,1 hPa 0,0 mm 0,0 km/h (0 Bft) W-NW 292 9,3 C 0,0 km/h (0 Bft)
27.08.2015 05:00 11,3 C 11,1 C 88 % 1011,1 hPa 0,0 mm 0,0 km/h (0 Bft) NW 315 9,4 C 0,0 km/h (0 Bft)
27.08.2015 05:05 11,3 C 11,1 C 88 % 1011,1 hPa 0,0 mm 0,0 km/h (0 Bft) NW 315 9,4 C 0,0 km/h (0 Bft)
27.08.2015 05:10 11,3 C 11,1 C 88 % 1011,1 hPa 0,0 mm 0,0 km/h (0 Bft) NW 315 9,4 C 0,0 km/h (0 Bft)
27.08.2015 05:15 11,3 C 11,1 C 88 % 1010,8 hPa 0,0 mm 0,0 km/h (0 Bft) NW 315 9,4 C 0,0 km/h (0 Bft)
27.08.2015 05:20 11,4 C 11,2 C 89 % 1010,8 hPa 0,0 mm 0,0 km/h (0 Bft) NW 315 9,7 C 0,0 km/h (0 Bft)
27.08.2015 05:25 11,4 C 11,3 C 89 % 1010,8 hPa 0,0 mm 0,0 km/h (0 Bft) NW 315 9,7 C 0,0 km/h (0 Bft)
27.08.2015 05:30 11,4 C 11,3 C 89 % 1010,8 hPa 0,0 mm 0,0 km/h (0 Bft) NW 315 9,7 C 0,0 km/h (0 Bft)
27.08.2015 05:35 11,4 C 11,3 C 89 % 1010,9 hPa 0,0 mm 0,0 km/h (0 Bft) N-NW 337 9,7 C 0,0 km/h (0 Bft)
27.08.2015 05:40 11,5 C 11,3 C 89 % 1010,9 hPa 0,0 mm 0,0 km/h (0 Bft) N-NW 337 9,8 C 0,0 km/h (0 Bft)
27.08.2015 05:45 11,4 C 11,3 C 89 % 1010,9 hPa 0,0 mm 0,0 km/h (0 Bft) NW 315 9,7 C 0,0 km/h (0 Bft)
27.08.2015 05:50 11,3 C 11,2 C 88 % 1010,9 hPa 0,0 mm 0,0 km/h (0 Bft) NW 315 9,4 C 0,0 km/h (0 Bft)
27.08.2015 05:55 11,3 C 11,2 C 88 % 1010,8 hPa 0,0 mm 0,0 km/h (0 Bft) NW 315 9,4 C 0,0 km/h (0 Bft)
27.08.2015 06:00 11,1 C 11,1 C 88 % 1010,8 hPa 0,0 mm 0,0 km/h (0 Bft) W 270 9,2 C 0,0 km/h (0 Bft)
27.08.2015 06:05 11,4 C 11,2 C 89 % 1010,8 hPa 0,0 mm 0,0 km/h (0 Bft) N 360 9,7 C 0,0 km/h (0 Bft)
27.08.2015 06:10 11,3 C 11,2 C 89 % 1010,8 hPa 0,0 mm 0,0 km/h (0 Bft) W 270 9,6 C 0,0 km/h (0 Bft)
27.08.2015 06:15 11,3 C 11,2 C 89 % 1010,9 hPa 0,0 mm 0,0 km/h (0 Bft) W 270 9,6 C 0,0 km/h (0 Bft)
27.08.2015 06:16 11,3 C 11,2 C 88 % 1010,9 hPa 0,0 mm 0,0 km/h (0 Bft) W-NW 292 9,4 C 0,0 km/h (0 Bft)
27.08.2015 06:17 11,3 C 11,2 C 88 % 1010,9 hPa 0,0 mm 0,0 km/h (0 Bft) W-NW 292 9,4 C 0,0 km/h (0 Bft)
27.08.2015 06:20 11,3 C 11,2 C 88 % 1010,9 hPa 0,0 mm 0,0 km/h (0 Bft) W-NW 292 9,4 C 0,0 km/h (0 Bft)
27.08.2015 06:25 11,2 C 11,1 C 88 % 1010,9 hPa 0,0 mm 0,0 km/h (0 Bft) W 270 9,3 C 0,0 km/h (0 Bft)
27.08.2015 06:30 11,2 C 11,0 C 88 % 1010,9 hPa 0,0 mm 0,0 km/h (0 Bft) N-NW 337 9,3 C 0,0 km/h (0 Bft)
27.08.2015 06:35 11,2 C 11,1 C 88 % 1010,8 hPa 0,0 mm 0,0 km/h (0 Bft) N-NO 22 9,3 C 0,0 km/h (0 Bft)
27.08.2015 06:40 11,0 C 11,0 C 88 % 1010,8 hPa 0,0 mm 0,0 km/h (0 Bft) W-NW 292 9,1 C 0,0 km/h (0 Bft)
27.08.2015 06:45 11,2 C 11,1 C 89 % 1010,8 hPa 0,0 mm 0,0 km/h (0 Bft) S 180 9,5 C 0,0 km/h (0 Bft)
27.08.2015 06:50 11,4 C 11,3 C 89 % 1010,8 hPa 0,0 mm 0,0 km/h (0 Bft) S 180 9,7 C 0,0 km/h (0 Bft)
27.08.2015 06:55 11,2 C 11,2 C 88 % 1010,9 hPa 0,0 mm 0,0 km/h (0 Bft) S-SO 157 9,3 C 0,0 km/h (0 Bft)
27.08.2015 07:00 11,3 C 11,2 C 88 % 1010,9 hPa 0,0 mm 0,0 km/h (0 Bft) N-NO 22 9,4 C 0,0 km/h (0 Bft)
27.08.2015 07:05 11,4 C 11,3 C 89 % 1010,9 hPa 0,0 mm 0,0 km/h (0 Bft) N-NO 22 9,7 C 0,0 km/h (0 Bft)
27.08.2015 07:10 11,6 C 11,5 C 89 % 1010,9 hPa 0,0 mm 0,0 km/h (0 Bft) N-NO 22 9,8 C 0,0 km/h (0 Bft)
27.08.2015 07:15 12,0 C 11,9 C 89 % 1011,1 hPa 0,0 mm 0,0 km/h (0 Bft) O-NO 67 10,2 C 0,0 km/h (0 Bft)
27.08.2015 07:20 12,3 C 12,3 C 89 % 1011,1 hPa 0,0 mm 0,3 km/h (0 Bft) NW 315 10,5 C 0,0 km/h (0 Bft)
27.08.2015 07:25 12,5 C 12,6 C 85 % 1011,1 hPa 0,0 mm 0,3 km/h (0 Bft) NW 315 10,0 C 0,0 km/h (0 Bft)
27.08.2015 07:30 13,0 C 13,1 C 88 % 1011,1 hPa 0,0 mm 0,0 km/h (0 Bft) W-NW 292 11,1 C 0,0 km/h (0 Bft)
27.08.2015 07:35 13,3 C 13,7 C 88 % 1011,2 hPa 0,0 mm 0,0 km/h (0 Bft) W 270 11,4 C 0,0 km/h (0 Bft)
27.08.2015 07:40 13,5 C 14,4 C 88 % 1011,2 hPa 0,0 mm 0,0 km/h (0 Bft) N-NW 337 11,6 C 0,0 km/h (0 Bft)
27.08.2015 07:45 13,7 C 15,1 C 84 % 1011,2 hPa 0,0 mm 0,0 km/h (0 Bft) N 360 11,0 C 0,0 km/h (0 Bft)
27.08.2015 07:50 14,0 C 16,6 C 88 % 1011,2 hPa 0,0 mm 0,0 km/h (0 Bft) N-NW 337 12,0 C 0,0 km/h (0 Bft)
27.08.2015 07:55 14,3 C 17,4 C 83 % 1011,2 hPa 0,0 mm 0,0 km/h (0 Bft) N 360 11,5 C 0,0 km/h (0 Bft)
27.08.2015 08:00 14,7 C 18,4 C 83 % 1011,2 hPa 0,0 mm 0,0 km/h (0 Bft) N 360 11,8 C 0,0 km/h (0 Bft)
27.08.2015 08:05 14,9 C 18,5 C 87 % 1011,2 hPa 0,0 mm 0,0 km/h (0 Bft) N-NW 337 12,8 C 0,0 km/h (0 Bft)
27.08.2015 08:10 15,2 C 18,5 C 82 % 1011,2 hPa 0,0 mm 0,0 km/h (0 Bft) O-NO 67 12,1 C 0,0 km/h (0 Bft)
27.08.2015 08:15 15,5 C 19,0 C 85 % 1011,3 hPa 0,0 mm 0,0 km/h (0 Bft) O-SO 112 13,0 C 0,0 km/h (0 Bft)
27.08.2015 08:20 16,2 C 20,8 C 80 % 1011,3 hPa 0,0 mm 0,0 km/h (0 Bft) N-NO 22 12,7 C 0,0 km/h (0 Bft)
27.08.2015 08:25 16,8 C 22,5 C 79 % 1011,3 hPa 0,0 mm 0,0 km/h (0 Bft) O-SO 112 13,1 C 0,0 km/h (0 Bft)
27.08.2015 08:30 16,9 C 23,8 C 78 % 1011,3 hPa 0,0 mm 0,0 km/h (0 Bft) O-NO 67 13,0 C 0,0 km/h (0 Bft)
27.08.2015 08:35 17,2 C 24,2 C 77 % 1011,5 hPa 0,0 mm 0,0 km/h (0 Bft) O-SO 112 13,1 C 0,0 km/h (0 Bft)
27.08.2015 08:40 17,6 C 24,5 C 77 % 1011,5 hPa 0,0 mm 0,0 km/h (0 Bft) O-SO 112 13,5 C 0,0 km/h (0 Bft)
27.08.2015 08:45 17,8 C 24,5 C 76 % 1011,5 hPa 0,0 mm 0,0 km/h (0 Bft) O-SO 112 13,5 C 0,0 km/h (0 Bft)
27.08.2015 08:50 18,3 C 25,5 C 76 % 1011,5 hPa 0,0 mm 0,0 km/h (0 Bft) O-SO 112 14,0 C 0,0 km/h (0 Bft)
27.08.2015 08:55 18,8 C 26,5 C 75 % 1012,1 hPa 0,0 mm 0,0 km/h (0 Bft) O-SO 112 14,3 C 0,0 km/h (0 Bft)
27.08.2015 09:00 19,5 C 28,1 C 75 % 1012,1 hPa 0,0 mm 0,0 km/h (0 Bft) O-NO 67 14,9 C 0,0 km/h (0 Bft)
27.08.2015 09:05 19,9 C 28,7 C 73 % 1012,1 hPa 0,0 mm 0,0 km/h (0 Bft) O-NO 67 14,9 C 0,0 km/h (0 Bft)
27.08.2015 09:10 19,7 C 28,4 C 73 % 1012,1 hPa 0,0 mm 0,0 km/h (0 Bft) O-NO 67 14,7 C 0,0 km/h (0 Bft)
27.08.2015 09:15 19,4 C 27,6 C 72 % 1012,5 hPa 0,0 mm 0,0 km/h (0 Bft) O 90 14,2 C 0,0 km/h (0 Bft)
27.08.2015 09:20 20,1 C 27,9 C 73 % 1012,5 hPa 0,0 mm 0,0 km/h (0 Bft) O-SO 112 15,1 C 0,0 km/h (0 Bft)
27.08.2015 09:25 20,7 C 28,9 C 72 % 1012,5 hPa 0,0 mm 0,0 km/h (0 Bft) O-NO 67 15,5 C 0,0 km/h (0 Bft)
27.08.2015 09:30 21,2 C 30,2 C 71 % 1012,5 hPa 0,0 mm 0,0 km/h (0 Bft) O-NO 67 15,7 C 0,0 km/h (0 Bft)
27.08.2015 09:35 21,3 C 30,8 C 70 % 1013,1 hPa 0,0 mm 0,0 km/h (0 Bft) O-NO 67 15,6 C 0,0 km/h (0 Bft)
27.08.2015 09:40 21,7 C 31,3 C 70 % 1013,1 hPa 0,0 mm 0,0 km/h (0 Bft) O-NO 67 16,0 C 0,0 km/h (0 Bft)
27.08.2015 09:45 22,0 C 31,7 C 69 % 1013,1 hPa 0,0 mm 0,0 km/h (0 Bft) O-SO 112 16,0 C 0,0 km/h (0 Bft)
27.08.2015 09:50 22,3 C 32,2 C 68 % 1013,1 hPa 0,0 mm 0,0 km/h (0 Bft) O-NO 67 16,1 C 0,0 km/h (0 Bft)
27.08.2015 09:55 22,5 C 32,9 C 67 % 1013,3 hPa 0,0 mm 0,0 km/h (0 Bft) O-NO 67 16,1 C 0,0 km/h (0 Bft)
27.08.2015 10:00 23,0 C 33,4 C 66 % 1013,3 hPa 0,0 mm 0,0 km/h (0 Bft) O-NO 67 16,3 C 0,0 km/h (0 Bft)
27.08.2015 10:05 23,2 C 33,4 C 65 % 1013,3 hPa 0,0 mm 0,0 km/h (0 Bft) O-NO 67 16,2 C 0,0 km/h (0 Bft)
27.08.2015 10:10 23,6 C 33,1 C 65 % 1013,3 hPa 0,0 mm 0,0 km/h (0 Bft) O-NO 67 16,6 C 0,0 km/h (0 Bft)
27.08.2015 10:15 23,8 C 33,4 C 64 % 1013,2 hPa 0,0 mm 0,0 km/h (0 Bft) O 90 16,6 C 0,0 km/h (0 Bft)
27.08.2015 10:20 24,2 C 34,2 C 64 % 1013,2 hPa 0,0 mm 0,0 km/h (0 Bft) O-NO 67 16,9 C 0,0 km/h (0 Bft)
27.08.2015 10:25 24,3 C 33,6 C 60 % 1013,2 hPa 0,0 mm 1,0 km/h (0 Bft) O-NO 67 16,0 C 4,9 km/h (1 Bft)
27.08.2015 10:30 24,8 C 32,8 C 59 % 1013,2 hPa 0,0 mm 1,6 km/h (1 Bft) O-NO 67 16,2 C 4,7 km/h (1 Bft)
27.08.2015 10:35 25,1 C 32,6 C 58 % 1013,4 hPa 0,0 mm 1,8 km/h (1 Bft) O-NO 67 16,2 C 3,6 km/h (1 Bft)
27.08.2015 10:40 25,1 C 31,8 C 55 % 1013,4 hPa 0,0 mm 3,4 km/h (1 Bft) O-NO 67 15,4 C 4,1 km/h (1 Bft)
27.08.2015 10:45 25,0 C 31,6 C 56 % 1013,4 hPa 0,0 mm 2,8 km/h (1 Bft) O-NO 67 15,6 C 0,0 km/h (0 Bft)
27.08.2015 10:50 25,4 C 32,2 C 54 % 1013,4 hPa 0,0 mm 1,3 km/h (1 Bft) O-SO 112 15,4 C 3,4 km/h (1 Bft)
27.08.2015 10:55 25,6 C 32,4 C 53 % 1013,4 hPa 0,0 mm 1,3 km/h (1 Bft) O-NO 67 15,3 C 3,1 km/h (1 Bft)
27.08.2015 11:00 25,6 C 32,8 C 51 % 1013,4 hPa 0,0 mm 1,6 km/h (1 Bft) O-SO 112 14,7 C 0,0 km/h (0 Bft)
27.08.2015 11:05 25,9 C 33,2 C 51 % 1013,4 hPa 0,0 mm 1,6 km/h (1 Bft) O-NO 67 15,0 C 6,7 km/h (2 Bft)
27.08.2015 11:10 26,0 C 33,0 C 51 % 1013,4 hPa 0,0 mm 1,8 km/h (1 Bft) O-SO 112 15,1 C 3,6 km/h (1 Bft)
27.08.2015 11:15 26,1 C 32,9 C 50 % 1013,4 hPa 0,0 mm 3,4 km/h (1 Bft) O 90 14,8 C 3,1 km/h (1 Bft)
27.08.2015 11:20 25,9 C 32,4 C 52 % 1013,4 hPa 0,0 mm 4,4 km/h (1 Bft) O-SO 112 15,3 C 5,4 km/h (1 Bft)
27.08.2015 11:25 25,7 C 32,0 C 51 % 1013,4 hPa 0,0 mm 4,4 km/h (1 Bft) N-NO 22 14,8 C 3,1 km/h (1 Bft)
27.08.2015 11:30 26,0 C 32,3 C 50 % 1013,4 hPa 0,0 mm 3,6 km/h (1 Bft) N-NO 22 14,8 C 10,1 km/h (2 Bft)
27.08.2015 11:35 25,9 C 31,8 C 49 % 1013,3 hPa 0,0 mm 4,4 km/h (1 Bft) O 90 14,4 C 6,2 km/h (2 Bft)
27.08.2015 11:40 26,2 C 32,1 C 49 % 1013,3 hPa 0,0 mm 4,9 km/h (1 Bft) O-NO 67 14,6 C 13,5 km/h (3 Bft)
27.08.2015 11:45 26,3 C 32,2 C 48 % 1013,3 hPa 0,0 mm 2,8 km/h (1 Bft) O-NO 67 14,4 C 5,2 km/h (1 Bft)
27.08.2015 11:50 26,4 C 32,5 C 47 % 1013,3 hPa 0,0 mm 3,6 km/h (1 Bft) NW 315 14,2 C 6,0 km/h (2 Bft)
27.08.2015 11:55 26,3 C 32,3 C 49 % 1013,2 hPa 0,0 mm 3,1 km/h (1 Bft) O-NO 67 14,7 C 8,3 km/h (2 Bft)
27.08.2015 12:00 26,3 C 32,1 C 48 % 1013,2 hPa 0,0 mm 3,1 km/h (1 Bft) N-NO 22 14,4 C 3,6 km/h (1 Bft)
27.08.2015 12:05 26,5 C 32,6 C 49 % 1013,2 hPa 0,0 mm 2,8 km/h (1 Bft) O-SO 112 14,9 C 8,3 km/h (2 Bft)
27.08.2015 12:10 26,5 C 32,1 C 48 % 1013,2 hPa 0,0 mm 3,4 km/h (1 Bft) SO 135 14,6 C 6,7 km/h (2 Bft)
27.08.2015 12:15 26,7 C 32,0 C 47 % 1013,0 hPa 0,0 mm 4,9 km/h (1 Bft) N-NO 22 14,4 C 10,4 km/h (2 Bft)
27.08.2015 12:16 26,6 C 31,8 C 46 % 1013,0 hPa 0,0 mm 5,4 km/h (1 Bft) N-NO 22 14,0 C 10,1 km/h (2 Bft)
27.08.2015 12:18 26,6 C 31,8 C 46 % 1013,0 hPa 0,0 mm 5,4 km/h (1 Bft) N-NO 22 14,0 C 10,1 km/h (2 Bft)
27.08.2015 12:20 26,6 C 31,8 C 46 % 1013,0 hPa 0,0 mm 5,4 km/h (1 Bft) N-NO 22 14,0 C 10,1 km/h (2 Bft)
27.08.2015 12:25 26,5 C 32,0 C 46 % 1013,0 hPa 0,0 mm 6,0 km/h (2 Bft) O-SO 112 13,9 C 7,8 km/h (2 Bft)
27.08.2015 12:30 26,4 C 31,3 C 45 % 1013,0 hPa 0,0 mm 5,4 km/h (1 Bft) N-NO 22 13,5 C 11,7 km/h (2 Bft)
27.08.2015 12:35 26,6 C 31,3 C 44 % 1012,7 hPa 0,0 mm 6,2 km/h (2 Bft) O-NO 67 13,3 C 13,2 km/h (3 Bft)
27.08.2015 12:40 26,7 C 31,3 C 45 % 1012,7 hPa 0,0 mm 6,2 km/h (2 Bft) O-SO 112 13,8 C 3,6 km/h (1 Bft)
27.08.2015 12:45 27,1 C 31,7 C 46 % 1012,7 hPa 0,0 mm 5,2 km/h (1 Bft) O-NO 67 14,5 C 6,2 km/h (2 Bft)
27.08.2015 12:50 26,8 C 31,3 C 45 % 1012,7 hPa 0,0 mm 6,0 km/h (2 Bft) O-SO 112 13,9 C 5,4 km/h (1 Bft)
27.08.2015 12:55 26,7 C 31,3 C 45 % 1012,7 hPa 0,0 mm 7,3 km/h (2 Bft) O-NO 67 13,8 C 10,1 km/h (2 Bft)
27.08.2015 13:00 26,9 C 30,9 C 46 % 1012,7 hPa 0,0 mm 6,0 km/h (2 Bft) N-NW 337 14,3 C 0,0 km/h (0 Bft)
27.08.2015 13:05 27,2 C 30,8 C 46 % 1012,7 hPa 0,0 mm 6,0 km/h (2 Bft) O-NO 67 14,6 C 15,5 km/h (3 Bft)
27.08.2015 13:10 27,1 C 29,5 C 46 % 1012,7 hPa 0,0 mm 4,7 km/h (1 Bft) O-SO 112 14,5 C 5,4 km/h (1 Bft)
27.08.2015 13:15 27,2 C 29,3 C 46 % 1012,6 hPa 0,0 mm 5,4 km/h (1 Bft) N 360 14,6 C 12,4 km/h (3 Bft)
27.08.2015 13:20 27,4 C 29,4 C 44 % 1012,6 hPa 0,0 mm 4,9 km/h (1 Bft) O 90 14,0 C 6,2 km/h (2 Bft)
27.08.2015 13:25 27,3 C 29,7 C 44 % 1012,6 hPa 0,0 mm 6,5 km/h (2 Bft) SO 135 14,0 C 3,9 km/h (1 Bft)
27.08.2015 13:30 27,3 C 30,5 C 45 % 1012,6 hPa 0,0 mm 7,0 km/h (2 Bft) O-NO 67 14,3 C 18,1 km/h (3 Bft)
27.08.2015 13:35 27,1 C 30,9 C 44 % 1012,2 hPa 0,0 mm 6,2 km/h (2 Bft) O-SO 112 13,8 C 7,5 km/h (2 Bft)
27.08.2015 13:40 27,2 C 31,4 C 44 % 1012,2 hPa 0,0 mm 5,7 km/h (1 Bft) W-NW 292 13,9 C 3,4 km/h (1 Bft)
27.08.2015 13:45 27,2 C 31,8 C 43 % 1012,2 hPa 0,0 mm 4,9 km/h (1 Bft) NO 45 13,5 C 10,1 km/h (2 Bft)
27.08.2015 13:50 27,2 C 31,7 C 43 % 1012,2 hPa 0,0 mm 5,7 km/h (1 Bft) NO 45 13,5 C 3,4 km/h (1 Bft)
27.08.2015 13:55 27,2 C 31,8 C 42 % 1012,1 hPa 0,0 mm 7,5 km/h (2 Bft) N 360 13,2 C 8,8 km/h (2 Bft)
27.08.2015 14:00 28,0 C 32,6 C 42 % 1012,1 hPa 0,0 mm 4,7 km/h (1 Bft) N-NO 22 13,9 C 11,9 km/h (2 Bft)
27.08.2015 14:05 28,0 C 32,9 C 42 % 1012,1 hPa 0,0 mm 3,6 km/h (1 Bft) N-NO 22 13,9 C 8,3 km/h (2 Bft)
27.08.2015 14:10 28,0 C 32,7 C 41 % 1012,1 hPa 0,0 mm 6,5 km/h (2 Bft) O-NO 67 13,5 C 6,5 km/h (2 Bft)
27.08.2015 14:15 27,9 C 32,5 C 41 % 1011,9 hPa 0,0 mm 7,0 km/h (2 Bft) N-NW 337 13,4 C 7,0 km/h (2 Bft)
27.08.2015 14:20 27,9 C 32,3 C 41 % 1011,9 hPa 0,0 mm 6,2 km/h (2 Bft) N-NO 22 13,4 C 8,8 km/h (2 Bft)
27.08.2015 14:25 27,8 C 32,5 C 42 % 1011,9 hPa 0,0 mm 5,7 km/h (1 Bft) NW 315 13,7 C 7,3 km/h (2 Bft)
27.08.2015 14:30 28,1 C 32,8 C 42 % 1011,9 hPa 0,0 mm 5,2 km/h (1 Bft) NO 45 14,0 C 0,0 km/h (0 Bft)
27.08.2015 14:35 28,2 C 33,0 C 42 % 1011,6 hPa 0,0 mm 5,4 km/h (1 Bft) N-NO 22 14,0 C 7,0 km/h (2 Bft)
27.08.2015 14:40 27,9 C 32,6 C 42 % 1011,6 hPa 0,0 mm 6,5 km/h (2 Bft) N-NW 337 13,8 C 9,1 km/h (2 Bft)
27.08.2015 14:45 27,9 C 32,1 C 42 % 1011,6 hPa 0,0 mm 8,5 km/h (2 Bft) NO 45 13,8 C 16,3 km/h (3 Bft)
27.08.2015 14:50 28,0 C 32,1 C 42 % 1011,6 hPa 0,0 mm 7,8 km/h (2 Bft) N-NO 22 13,9 C 6,7 km/h (2 Bft)
27.08.2015 14:55 28,1 C 32,6 C 42 % 1011,3 hPa 0,0 mm 6,0 km/h (2 Bft) NO 45 14,0 C 8,8 km/h (2 Bft)
27.08.2015 15:00 28,5 C 33,1 C 42 % 1011,3 hPa 0,0 mm 3,4 km/h (1 Bft) N 360 14,3 C 0,0 km/h (0 Bft)
27.08.2015 15:05 29,0 C 33,8 C 44 % 1011,3 hPa 0,0 mm 2,1 km/h (1 Bft) NW 315 15,5 C 4,9 km/h (1 Bft)
27.08.2015 15:10 28,5 C 33,6 C 42 % 1011,3 hPa 0,0 mm 4,1 km/h (1 Bft) NO 45 14,3 C 0,0 km/h (0 Bft)
27.08.2015 15:15 28,8 C 33,7 C 42 % 1011,1 hPa 0,0 mm 3,9 km/h (1 Bft) NO 45 14,6 C 2,8 km/h (1 Bft)
27.08.2015 15:20 28,7 C 33,8 C 42 % 1011,1 hPa 0,0 mm 1,6 km/h (1 Bft) N-NW 337 14,5 C 0,0 km/h (0 Bft)
27.08.2015 15:25 28,7 C 33,6 C 41 % 1011,1 hPa 0,0 mm 4,1 km/h (1 Bft) O-NO 67 14,1 C 3,4 km/h (1 Bft)
27.08.2015 15:30 28,4 C 33,2 C 41 % 1011,1 hPa 0,0 mm 5,4 km/h (1 Bft) S 180 13,9 C 6,2 km/h (2 Bft)
27.08.2015 15:35 28,3 C 33,4 C 44 % 1010,8 hPa 0,0 mm 3,6 km/h (1 Bft) O 90 14,9 C 0,0 km/h (0 Bft)
27.08.2015 15:40 28,6 C 33,6 C 42 % 1010,8 hPa 0,0 mm 2,1 km/h (1 Bft) NO 45 14,4 C 3,4 km/h (1 Bft)
27.08.2015 15:45 28,7 C 33,9 C 43 % 1010,8 hPa 0,0 mm 1,8 km/h (1 Bft) O-NO 67 14,9 C 4,1 km/h (1 Bft)
27.08.2015 15:50 28,3 C 33,4 C 43 % 1010,8 hPa 0,0 mm 3,9 km/h (1 Bft) N-NW 337 14,5 C 11,7 km/h (2 Bft)
27.08.2015 15:55 28,1 C 32,8 C 42 % 1010,8 hPa 0,0 mm 5,7 km/h (1 Bft) O-NO 67 14,0 C 4,7 km/h (1 Bft)
27.08.2015 16:00 28,2 C 32,8 C 42 % 1010,8 hPa 0,0 mm 4,7 km/h (1 Bft) N-NO 22 14,0 C 6,5 km/h (2 Bft)
27.08.2015 16:05 28,3 C 33,1 C 42 % 1010,8 hPa 0,0 mm 3,1 km/h (1 Bft) W-SW 247 14,1 C 5,7 km/h (1 Bft)
27.08.2015 16:10 28,9 C 33,4 C 42 % 1010,8 hPa 0,0 mm 2,3 km/h (1 Bft) N-NW 337 14,7 C 3,1 km/h (1 Bft)
27.08.2015 16:15 28,9 C 33,6 C 42 % 1010,7 hPa 0,0 mm 3,1 km/h (1 Bft) N-NW 337 14,7 C 15,0 km/h (3 Bft)
27.08.2015 16:20 28,0 C 32,7 C 42 % 1010,7 hPa 0,0 mm 6,0 km/h (2 Bft) NW 315 13,9 C 9,3 km/h (2 Bft)
27.08.2015 16:25 27,7 C 32,0 C 43 % 1010,7 hPa 0,0 mm 7,3 km/h (2 Bft) N-NW 337 14,0 C 5,7 km/h (1 Bft)
27.08.2015 16:30 27,5 C 31,8 C 44 % 1010,7 hPa 0,0 mm 6,0 km/h (2 Bft) W-NW 292 14,1 C 10,9 km/h (2 Bft)
27.08.2015 16:35 27,2 C 31,2 C 44 % 1010,8 hPa 0,0 mm 5,4 km/h (1 Bft) N-NW 337 13,9 C 8,8 km/h (2 Bft)
27.08.2015 16:40 27,1 C 30,1 C 45 % 1010,8 hPa 0,0 mm 6,0 km/h (2 Bft) N-NW 337 14,1 C 9,8 km/h (2 Bft)
27.08.2015 16:45 27,0 C 29,6 C 45 % 1010,8 hPa 0,0 mm 5,4 km/h (1 Bft) NW 315 14,0 C 4,7 km/h (1 Bft)
27.08.2015 16:50 26,8 C 29,0 C 46 % 1010,8 hPa 0,0 mm 4,7 km/h (1 Bft) N-NO 22 14,2 C 0,0 km/h (0 Bft)
27.08.2015 16:55 26,8 C 28,7 C 45 % 1010,6 hPa 0,0 mm 3,6 km/h (1 Bft) NO 45 13,9 C 0,0 km/h (0 Bft)
27.08.2015 17:00 26,5 C 28,6 C 47 % 1010,6 hPa 0,0 mm 1,0 km/h (0 Bft) O-NO 67 14,3 C 0,0 km/h (0 Bft)
27.08.2015 17:05 26,4 C 28,6 C 48 % 1010,6 hPa 0,0 mm 0,3 km/h (0 Bft) O 90 14,5 C 0,0 km/h (0 Bft)
27.08.2015 17:10 26,1 C 28,5 C 49 % 1010,6 hPa 0,0 mm 0,5 km/h (0 Bft) O 90 14,5 C 0,0 km/h (0 Bft)
27.08.2015 17:15 25,9 C 28,4 C 51 % 1010,4 hPa 0,0 mm 0,5 km/h (0 Bft) O 90 15,0 C 0,0 km/h (0 Bft)
27.08.2015 17:20 25,5 C 28,2 C 51 % 1010,4 hPa 0,0 mm 0,5 km/h (0 Bft) O-SO 112 14,6 C 0,0 km/h (0 Bft)
27.08.2015 17:25 25,4 C 28,0 C 51 % 1010,4 hPa 0,0 mm 0,5 km/h (0 Bft) SO 135 14,5 C 0,0 km/h (0 Bft)
27.08.2015 17:30 25,3 C 27,9 C 51 % 1010,4 hPa 0,0 mm 0,3 km/h (0 Bft) O-SO 112 14,4 C 0,0 km/h (0 Bft)
27.08.2015 17:35 25,1 C 27,8 C 51 % 1010,4 hPa 0,0 mm 0,3 km/h (0 Bft) O-SO 112 14,2 C 0,0 km/h (0 Bft)
27.08.2015 17:40 24,9 C 27,5 C 53 % 1010,4 hPa 0,0 mm 0,0 km/h (0 Bft) O-SO 112 14,6 C 0,0 km/h (0 Bft)
27.08.2015 17:45 24,8 C 27,3 C 53 % 1010,4 hPa 0,0 mm 0,0 km/h (0 Bft) SO 135 14,6 C 0,0 km/h (0 Bft)
27.08.2015 17:50 24,5 C 27,0 C 56 % 1010,4 hPa 0,0 mm 0,0 km/h (0 Bft) O-SO 112 15,1 C 0,0 km/h (0 Bft)
27.08.2015 17:55 24,3 C 26,8 C 57 % 1010,3 hPa 0,0 mm 0,0 km/h (0 Bft) O-SO 112 15,2 C 0,0 km/h (0 Bft)
27.08.2015 18:00 24,1 C 26,6 C 57 % 1010,3 hPa 0,0 mm 0,0 km/h (0 Bft) SO 135 15,0 C 0,0 km/h (0 Bft)
27.08.2015 18:05 24,1 C 26,5 C 57 % 1010,3 hPa 0,0 mm 0,0 km/h (0 Bft) O-SO 112 15,0 C 0,0 km/h (0 Bft)
27.08.2015 18:10 23,9 C 26,2 C 58 % 1010,3 hPa 0,0 mm 0,0 km/h (0 Bft) O-SO 112 15,1 C 0,0 km/h (0 Bft)
27.08.2015 18:15 23,8 C 26,0 C 59 % 1010,1 hPa 0,0 mm 0,0 km/h (0 Bft) SO 135 15,3 C 0,0 km/h (0 Bft)
27.08.2015 18:16 23,6 C 25,9 C 59 % 1010,1 hPa 0,0 mm 0,0 km/h (0 Bft) SO 135 15,1 C 0,0 km/h (0 Bft)
27.08.2015 18:19 23,6 C 25,9 C 59 % 1010,1 hPa 0,0 mm 0,0 km/h (0 Bft) SO 135 15,1 C 0,0 km/h (0 Bft)
27.08.2015 18:25 23,5 C 25,7 C 59 % 1010,1 hPa 0,0 mm 0,0 km/h (0 Bft) SO 135 15,0 C 0,0 km/h (0 Bft)
27.08.2015 18:30 23,5 C 25,4 C 60 % 1010,1 hPa 0,0 mm 0,0 km/h (0 Bft) O-SO 112 15,3 C 0,0 km/h (0 Bft)
27.08.2015 18:35 23,3 C 25,2 C 62 % 1009,9 hPa 0,0 mm 0,0 km/h (0 Bft) SO 135 15,6 C 0,0 km/h (0 Bft)
27.08.2015 18:40 23,0 C 24,9 C 63 % 1009,9 hPa 0,0 mm 0,0 km/h (0 Bft) SO 135 15,6 C 0,0 km/h (0 Bft)
27.08.2015 18:45 22,8 C 24,7 C 65 % 1009,9 hPa 0,0 mm 0,0 km/h (0 Bft) SO 135 15,9 C 0,0 km/h (0 Bft)
27.08.2015 18:50 22,6 C 24,4 C 66 % 1009,9 hPa 0,0 mm 0,0 km/h (0 Bft) O-SO 112 15,9 C 0,0 km/h (0 Bft)
27.08.2015 18:55 22,5 C 24,2 C 65 % 1009,9 hPa 0,0 mm 0,0 km/h (0 Bft) O-SO 112 15,6 C 0,0 km/h (0 Bft)
27.08.2015 19:00 22,4 C 23,9 C 67 % 1009,9 hPa 0,0 mm 0,0 km/h (0 Bft) SO 135 16,0 C 0,0 km/h (0 Bft)
27.08.2015 19:05 22,3 C 23,7 C 68 % 1009,9 hPa 0,0 mm 0,0 km/h (0 Bft) SO 135 16,1 C 0,0 km/h (0 Bft)
27.08.2015 19:10 21,8 C 23,3 C 69 % 1009,9 hPa 0,0 mm 0,0 km/h (0 Bft) SO 135 15,9 C 0,0 km/h (0 Bft)
27.08.2015 19:15 21,8 C 23,1 C 69 % 1009,9 hPa 0,0 mm 0,0 km/h (0 Bft) SO 135 15,9 C 0,0 km/h (0 Bft)
27.08.2015 19:20 21,8 C 23,0 C 70 % 1009,9 hPa 0,0 mm 0,0 km/h (0 Bft) S 180 16,1 C 0,0 km/h (0 Bft)
27.08.2015 19:25 21,7 C 22,8 C 69 % 1009,9 hPa 0,0 mm 0,0 km/h (0 Bft) S 180 15,8 C 0,0 km/h (0 Bft)
27.08.2015 19:30 21,6 C 22,6 C 70 % 1009,9 hPa 0,0 mm 0,0 km/h (0 Bft) S 180 15,9 C 0,0 km/h (0 Bft)
27.08.2015 19:35 21,6 C 22,4 C 70 % 1009,9 hPa 0,0 mm 0,0 km/h (0 Bft) S 180 15,9 C 0,0 km/h (0 Bft)
27.08.2015 19:40 21,2 C 22,2 C 71 % 1009,9 hPa 0,0 mm 0,0 km/h (0 Bft) SW 225 15,7 C 0,0 km/h (0 Bft)
27.08.2015 19:45 21,0 C 22,2 C 71 % 1009,9 hPa 0,0 mm 0,0 km/h (0 Bft) S-SW 202 15,5 C 0,0 km/h (0 Bft)
27.08.2015 19:50 20,6 C 22,0 C 71 % 1009,9 hPa 0,0 mm 0,0 km/h (0 Bft) S-SW 202 15,2 C 0,0 km/h (0 Bft)
27.08.2015 19:55 20,4 C 21,6 C 71 % 1009,9 hPa 0,0 mm 0,0 km/h (0 Bft) S-SW 202 15,0 C 0,0 km/h (0 Bft)
27.08.2015 20:00 20,0 C 20,9 C 71 % 1009,9 hPa 0,0 mm 0,0 km/h (0 Bft) S-SW 202 14,6 C 0,0 km/h (0 Bft)
27.08.2015 20:05 19,8 C 20,5 C 72 % 1009,9 hPa 0,0 mm 0,0 km/h (0 Bft) S 180 14,6 C 0,0 km/h (0 Bft)
27.08.2015 20:10 19,4 C 19,8 C 72 % 1009,9 hPa 0,0 mm 0,0 km/h (0 Bft) S 180 14,2 C 0,0 km/h (0 Bft)
27.08.2015 20:15 19,3 C 19,5 C 72 % 1010,0 hPa 0,0 mm 0,0 km/h (0 Bft) S 180 14,1 C 0,0 km/h (0 Bft)
27.08.2015 20:20 19,0 C 19,1 C 73 % 1010,0 hPa 0,0 mm 0,0 km/h (0 Bft) S 180 14,0 C 0,0 km/h (0 Bft)
27.08.2015 20:25 18,9 C 18,9 C 73 % 1010,0 hPa 0,0 mm 0,0 km/h (0 Bft) S 180 13,9 C 0,0 km/h (0 Bft)
27.08.2015 20:30 18,8 C 18,6 C 73 % 1010,0 hPa 0,0 mm 0,0 km/h (0 Bft) S-SW 202 13,9 C 0,0 km/h (0 Bft)
27.08.2015 20:35 18,7 C 18,5 C 73 % 1010,1 hPa 0,0 mm 0,0 km/h (0 Bft) S-SW 202 13,8 C 0,0 km/h (0 Bft)
27.08.2015 20:40 18,4 C 18,1 C 72 % 1010,1 hPa 0,0 mm 0,0 km/h (0 Bft) S 180 13,3 C 0,0 km/h (0 Bft)
27.08.2015 20:45 18,3 C 18,0 C 72 % 1010,1 hPa 0,0 mm 0,0 km/h (0 Bft) S-SW 202 13,2 C 0,0 km/h (0 Bft)
27.08.2015 20:50 18,2 C 17,9 C 71 % 1010,1 hPa 0,0 mm 0,0 km/h (0 Bft) S 180 12,9 C 0,0 km/h (0 Bft)
27.08.2015 20:55 18,0 C 17,8 C 71 % 1010,1 hPa 0,0 mm 0,0 km/h (0 Bft) S 180 12,7 C 0,0 km/h (0 Bft)
27.08.2015 21:00 17,8 C 17,6 C 71 % 1010,1 hPa 0,0 mm 0,0 km/h (0 Bft) SW 225 12,5 C 0,0 km/h (0 Bft)
27.08.2015 21:05 17,7 C 17,4 C 71 % 1010,1 hPa 0,0 mm 0,0 km/h (0 Bft) S 180 12,4 C 0,0 km/h (0 Bft)
27.08.2015 21:10 17,5 C 17,3 C 72 % 1010,1 hPa 0,0 mm 0,0 km/h (0 Bft) S 180 12,4 C 0,0 km/h (0 Bft)
27.08.2015 21:15 17,4 C 17,2 C 72 % 1010,1 hPa 0,0 mm 0,0 km/h (0 Bft) S 180 12,3 C 0,0 km/h (0 Bft)
27.08.2015 21:20 17,3 C 17,0 C 72 % 1010,1 hPa 0,0 mm 0,0 km/h (0 Bft) S 180 12,2 C 0,0 km/h (0 Bft)
27.08.2015 21:25 17,2 C 16,9 C 72 % 1010,1 hPa 0,0 mm 0,0 km/h (0 Bft) S 180 12,1 C 0,0 km/h (0 Bft)
27.08.2015 21:30 17,1 C 16,8 C 72 % 1010,1 hPa 0,0 mm 0,0 km/h (0 Bft) S 180 12,0 C 0,0 km/h (0 Bft)
27.08.2015 21:35 17,0 C 16,7 C 72 % 1010,2 hPa 0,0 mm 0,0 km/h (0 Bft) S 180 11,9 C 0,0 km/h (0 Bft)
27.08.2015 21:40 17,0 C 16,7 C 73 % 1010,2 hPa 0,0 mm 0,0 km/h (0 Bft) S 180 12,1 C 0,0 km/h (0 Bft)
27.08.2015 21:45 16,9 C 16,6 C 73 % 1010,2 hPa 0,0 mm 0,0 km/h (0 Bft) S 180 12,0 C 0,0 km/h (0 Bft)
27.08.2015 21:50 16,7 C 16,4 C 73 % 1010,2 hPa 0,0 mm 0,0 km/h (0 Bft) W-SW 247 11,8 C 0,0 km/h (0 Bft)
27.08.2015 21:55 16,7 C 16,4 C 73 % 1010,2 hPa 0,0 mm 0,0 km/h (0 Bft) SW 225 11,8 C 0,0 km/h (0 Bft)
27.08.2015 22:00 16,6 C 16,3 C 73 % 1010,2 hPa 0,0 mm 0,0 km/h (0 Bft) W-SW 247 11,7 C 0,0 km/h (0 Bft)
27.08.2015 22:05 16,5 C 16,2 C 73 % 1010,2 hPa 0,0 mm 0,0 km/h (0 Bft) SW 225 11,6 C 0,0 km/h (0 Bft)
27.08.2015 22:10 16,5 C 16,2 C 73 % 1010,2 hPa 0,0 mm 0,0 km/h (0 Bft) W-SW 247 11,6 C 0,0 km/h (0 Bft)
27.08.2015 22:15 16,6 C 16,3 C 73 % 1010,2 hPa 0,0 mm 0,0 km/h (0 Bft) SW 225 11,7 C 0,0 km/h (0 Bft)
27.08.2015 22:20 16,5 C 16,2 C 73 % 1010,2 hPa 0,0 mm 0,0 km/h (0 Bft) W-SW 247 11,6 C 0,0 km/h (0 Bft)
27.08.2015 22:25 16,4 C 16,2 C 73 % 1010,2 hPa 0,0 mm 0,0 km/h (0 Bft) W-SW 247 11,5 C 0,0 km/h (0 Bft)
27.08.2015 22:30 16,5 C 16,2 C 72 % 1010,2 hPa 0,0 mm 0,0 km/h (0 Bft) SW 225 11,4 C 0,0 km/h (0 Bft)
27.08.2015 22:35 16,4 C 16,1 C 72 % 1010,2 hPa 0,0 mm 0,0 km/h (0 Bft) SW 225 11,3 C 0,0 km/h (0 Bft)
27.08.2015 22:40 16,4 C 16,1 C 72 % 1010,2 hPa 0,0 mm 0,0 km/h (0 Bft) SW 225 11,3 C 0,0 km/h (0 Bft)
27.08.2015 22:45 16,4 C 16,2 C 72 % 1010,2 hPa 0,0 mm 0,0 km/h (0 Bft) SW 225 11,3 C 0,0 km/h (0 Bft)
27.08.2015 22:50 16,3 C 16,1 C 72 % 1010,2 hPa 0,0 mm 0,0 km/h (0 Bft) SW 225 11,2 C 0,0 km/h (0 Bft)
27.08.2015 22:55 16,2 C 16,0 C 72 % 1010,2 hPa 0,0 mm 0,0 km/h (0 Bft) SW 225 11,1 C 0,0 km/h (0 Bft)
27.08.2015 23:00 16,2 C 16,0 C 71 % 1010,2 hPa 0,0 mm 0,0 km/h (0 Bft) W 270 10,9 C 0,0 km/h (0 Bft)
27.08.2015 23:05 16,1 C 15,9 C 71 % 1010,2 hPa 0,0 mm 0,0 km/h (0 Bft) S 180 10,8 C 0,0 km/h (0 Bft)
27.08.2015 23:10 16,1 C 15,9 C 71 % 1010,2 hPa 0,0 mm 0,0 km/h (0 Bft) S 180 10,8 C 0,0 km/h (0 Bft)
27.08.2015 23:15 16,1 C 15,9 C 71 % 1010,1 hPa 0,0 mm 0,0 km/h (0 Bft) SW 225 10,8 C 0,0 km/h (0 Bft)
27.08.2015 23:20 16,1 C 15,9 C 71 % 1010,1 hPa 0,0 mm 0,0 km/h (0 Bft) S 180 10,8 C 0,0 km/h (0 Bft)
27.08.2015 23:25 16,0 C 15,8 C 71 % 1010,1 hPa 0,0 mm 0,0 km/h (0 Bft) S 180 10,7 C 0,0 km/h (0 Bft)
27.08.2015 23:30 15,8 C 15,7 C 72 % 1010,1 hPa 0,0 mm 0,0 km/h (0 Bft) S 180 10,8 C 0,0 km/h (0 Bft)
27.08.2015 23:35 15,8 C 15,7 C 72 % 1010,1 hPa 0,0 mm 0,0 km/h (0 Bft) SW 225 10,8 C 0,0 km/h (0 Bft)
27.08.2015 23:40 15,8 C 15,6 C 72 % 1010,1 hPa 0,0 mm 0,0 km/h (0 Bft) S 180 10,8 C 0,0 km/h (0 Bft)
27.08.2015 23:45 15,8 C 15,6 C 72 % 1010,1 hPa 0,0 mm 0,0 km/h (0 Bft) S 180 10,8 C 0,0 km/h (0 Bft)
27.08.2015 23:50 15,8 C 15,6 C 72 % 1010,1 hPa 0,0 mm 0,0 km/h (0 Bft) S 180 10,8 C 0,0 km/h (0 Bft)
27.08.2015 23:55 15,9 C 15,6 C 72 % 1010,0 hPa 0,0 mm 0,0 km/h (0 Bft) SW 225 10,9 C 0,0 km/h (0 Bft)
_ Min-Zeit 06:40 06:40 15:30 20:10 - 23:55 - - 06:40 23:55
Minimum _ 11,0 C 11,0 C 41 % 1009,9 hPa - 0,0 km/h (0 Bft) - - 9,1 C 0,0 km/h (0 Bft)
_ Max-Zeit 15:05 10:20 07:20 11:30 23:55 14:45 - - 10:20 13:30
Maximum _ 29,0 C 34,2 C 89 % 1013,4 hPa 0,0 mm 8,5 km/h
NO (2 Bft)
- - 16,9 C 18,1 km/h
O-NO (3 Bft)
Durchschnitt _ 19,2 C 21,5 C 69 % 1011,3 hPa #0,0 mm 1,4 km/h (1 Bft) O-NO - 12,6 C 1,9 km/h (1 Bft)